DW3592 Weather Reports


Display with metric or nautical units.
time (UTC)temp
F
wind
direction
speed
MPH
gust
MPH
rain 1hr
in
rain 24hr
in
rain mn
in
humidity
%
barometer
mb
20220627120012 71 211 0.0 0.0 0.00 0.00 0.00 89 1013.7
20220627114511 71 197 1.0 0.0 0.00 0.00 0.00 89 1013.6
20220627113009 71 213 0.0 0.0 0.00 0.00 0.00 89 1013.5
20220627111508 71 194 1.0 0.0 0.00 0.00 0.00 89 1013.4
20220627110009 71 189 1.0 0.0 0.00 0.00 0.00 89 1013.4
20220627104507 71 232 1.0 0.0 0.00 0.00 0.00 88 1013.3
20220627103006 71 161 1.0 0.0 0.00 0.00 0.00 87 1013.2
20220627101506 71 200 1.0 0.0 0.00 0.00 0.00 88 1013.3
20220627100006 70 161 2.0 0.0 0.00 0.00 0.00 89 1013.2
20220627094508 70 194 1.0 0.0 0.00 0.00 0.00 89 1013.3
20220627093006 70 170 2.0 0.0 0.00 0.00 0.00 89 1013.2
20220627091505 70 184 2.0 0.0 0.00 0.00 0.00 89 1013.1
20220627090003 70 184 2.0 0.0 0.00 0.00 0.00 89 1013.2
20220627084505 71 188 1.0 0.0 0.00 0.00 0.00 88 1013.2
20220627083107 71 173 1.0 0.0 0.00 0.00 0.00 88 1013.5
20220627081558 71 189 2.0 0.0 0.00 0.00 0.00 87 1013.3
20220627080100 71 193 2.0 0.0 0.00 0.00 0.00 87 1013.5
20220627074601 71 191 2.0 0.0 0.00 0.00 0.00 86 1013.5
20220627073054 71 171 2.0 0.0 0.00 0.00 0.00 86 1013.7
20220627071550 71 182 2.0 0.0 0.00 0.00 0.00 85 1013.9
20220627070048 71 194 2.0 0.0 0.00 0.00 0.00 85 1014.0
20220627064547 72 155 2.0 0.0 0.00 0.00 0.00 84 1014.2
20220627063048 72 190 2.0 0.0 0.00 0.00 0.00 83 1014.4
20220627061543 72 159 2.0 0.0 0.00 0.00 0.00 82 1014.5
20220627060045 72 142 2.0 0.0 0.00 0.00 0.00 81 1014.6
20220627054540 72 186 2.0 0.0 0.00 0.00 0.00 81 1014.7
20220627053039 72 190 2.0 0.0 0.00 0.00 0.00 80 1014.8
20220627051547 73 191 2.0 0.0 0.00 0.00 0.00 80 1015.0
20220627050039 73 197 2.0 0.0 0.00 0.00 0.00 80 1015.3
20220627044534 73 198 1.0 0.0 0.00 0.00 0.00 78 1015.2
20220627043032 73 200 2.0 0.0 0.00 0.00 0.00 76 1015.3
20220627041530 73 190 2.0 0.0 0.00 0.00 0.00 73 1015.2
20220627040028 73 197 1.0 0.0 0.00 0.00 0.00 72 1015.3
20220627034528 73 158 1.0 0.0 0.00 0.00 0.00 72 1015.3
20220627033027 73 184 2.0 0.0 0.00 0.00 0.00 72 1015.4
20220627031528 73 146 1.0 0.0 0.00 0.00 0.00 70 1015.4
20220627030026 73 196 1.0 0.0 0.00 0.00 0.00 69 1015.3
20220627024527 73 168 2.0 0.0 0.00 0.00 0.00 69 1015.5
20220627023025 74 186 1.0 0.0 0.00 0.00 0.00 67 1015.8
20220627021526 74 165 1.0 0.0 0.00 0.00 0.00 64 1015.7
20220627020030 75 192 0.0 0.0 0.00 0.00 0.00 62 1015.8
20220627014525 75 192 0.0 0.0 0.00 0.00 0.00 62 1015.8
20220627013028 76 192 0.0 0.0 0.00 0.00 0.00 60 1015.8
20220627011524 76 199 2.0 0.0 0.00 0.00 0.00 59 1015.6
20220627010023 77 192 3.0 0.0 0.00 0.00 0.00 59 1015.5
20220627004526 77 226 2.0 0.0 0.00 0.00 0.00 60 1015.6
20220627003022 77 188 2.0 0.0 0.00 0.00 0.00 60 1015.1
20220627001522 78 194 2.0 0.0 0.00 0.00 0.00 63 1015.1
20220627000021 78 193 1.0 0.0 0.00 0.00 0.00 63 1015.0
20220626234521 78 190 2.0 0.0 0.00 0.00 0.00 63 1014.9
20220626233022 79 167 3.0 0.0 0.00 0.00 0.00 62 1015.1
20220626231520 79 206 2.0 0.0 0.00 0.00 0.00 62 1014.9
20220626230019 79 157 3.0 0.0 0.00 0.00 0.00 61 1014.9
20220626224519 80 182 3.0 0.0 0.00 0.00 0.00 61 1015.0
20220626223018 80 206 4.0 0.0 0.00 0.00 0.00 59 1015.1
20220626221517 81 158 4.0 0.0 0.00 0.00 0.00 62 1015.0
20220626220028 81 220 3.0 0.0 0.00 0.00 0.00 60 1015.1
20220626214520 81 194 4.0 0.0 0.00 0.00 0.00 60 1015.1
20220626213015 81 180 3.0 0.0 0.00 0.00 0.00 60 1015.3
20220626211515 82 201 3.0 0.0 0.00 0.00 0.00 59 1015.4
20220626210012 83 187 4.0 0.0 0.00 0.00 0.00 57 1015.5
20220626204512 84 197 4.0 0.0 0.00 0.00 0.00 56 1015.5
20220626203015 84 197 3.0 0.0 0.00 0.00 0.00 57 1015.6
20220626201515 83 183 4.0 0.0 0.00 0.00 0.00 56 1015.6
20220626200013 83 199 4.0 0.0 0.00 0.00 0.00 57 1015.8
20220626194512 83 205 3.0 0.0 0.00 0.00 0.00 58 1015.9
20220626193005 83 198 4.0 0.0 0.00 0.00 0.00 56 1016.0
20220626191504 83 191 3.0 0.0 0.00 0.00 0.00 57 1016.1
20220626190004 83 200 3.0 0.0 0.00 0.00 0.00 57 1016.3
20220626184507 83 174 4.0 0.0 0.00 0.00 0.00 57 1016.5
20220626183100 83 207 4.0 0.0 0.00 0.00 0.00 57 1016.5
20220626181557 83 107 4.0 0.0 0.00 0.00 0.00 57 1016.8
20220626180054 83 227 3.0 0.0 0.00 0.00 0.00 55 1017.1
20220626174606 83 117 3.0 0.0 0.00 0.00 0.00 58 1017.2
20220626173050 83 223 3.0 0.0 0.00 0.00 0.00 58 1017.3
20220626171546 82 9 3.0 0.0 0.00 0.00 0.00 60 1017.4
20220626170044 82 205 3.0 0.0 0.00 0.00 0.00 63 1017.8
20220626164542 82 213 3.0 0.0 0.00 0.00 0.00 66 1017.9
20220626163039 81 169 3.0 0.0 0.00 0.00 0.00 65 1018.2
20220626161537 80 188 3.0 0.0 0.00 0.00 0.00 64 1018.3
20220626160035 80 174 2.0 0.0 0.00 0.00 0.00 67 1018.5
20220626154534 79 163 2.0 0.0 0.00 0.00 0.00 68 1018.5
20220626153048 79 171 2.0 0.0 0.00 0.00 0.00 67 1018.5
20220626151533 79 182 2.0 0.0 0.00 0.00 0.00 69 1018.4
20220626150032 79 166 2.0 0.0 0.00 0.00 0.00 68 1018.5
20220626144530 79 198 2.0 0.0 0.00 0.00 0.00 70 1018.4
20220626143027 78 130 2.0 0.0 0.00 0.00 0.00 69 1018.5
20220626141525 78 168 1.0 0.0 0.00 0.00 0.00 72 1018.6
20220626140024 77 198 2.0 0.0 0.00 0.00 0.00 71 1018.6
20220626134522 77 197 2.0 0.0 0.00 0.00 0.00 70 1018.5
20220626133019 76 165 2.0 0.0 0.00 0.00 0.00 74 1018.7
20220626131521 76 194 2.0 0.0 0.00 0.00 0.00 73 1018.9
20220626130014 75 155 2.0 0.0 0.00 0.00 0.00 74 1018.9
20220626124513 74 214 2.0 0.0 0.00 0.00 0.00 75 1019.1
20220626123012 74 250 2.0 0.0 0.00 0.00 0.00 76 1019.3
20220626121508 73 216 2.0 0.0 0.00 0.00 0.00 78 1019.3